Location: *
(43.4667°N, 11.6833°E)
Time: 09:46:11
(UTC+00:00)

Resurs 01 Rocket - Pass Details

Date: 19 July 2019
Orbit: 634 x 645 km, 98.0° (Epoch: 20 August)

Event Time Altitude Azimuth Distance (km) Brightness Sun altitude
Exits shadow 19:28:13 - 164° (SSE) 2,729 4.4 -6.7°
Reaches altitude 10° 19:29:54 10° 164° (SSE) 2,031 3.7 -7.0°
Maximum altitude 19:34:20 86° 79° (E) 649 1.6 -7.6°
Drops below altitude 10° 19:38:48 10° 348° (NNW) 2,041 5.1 -8.2°
Sets 19:41:00 0° 348° (NNW) 2,953 6.0 -8.5°
